Location: *
(40.4270°N, 9.4940°E)
Time: 08:28:54
(UTC+02:00)

Okean 2 - Visible Passes

Search period start: 27 August 2016 00:00
Search period end: 06 September 2016 00:00
Orbit: 563 x 578 km, 82.5° (Epoch: 26 August)

Date Brightness Start Highest point End Pass type
(mag) Time Alt. Az. Time Alt. Az. Time Alt. Az.
27 Aug 6.0 21:34:09 10° NW 21:37:16 21° W 21:40:21 10° SW visible
28 Aug 6.3 21:36:53 10° NW 21:39:27 16° W 21:42:00 10° SW visible
29 Aug 6.6 21:39:55 10° WNW 21:41:38 12° W 21:43:19 10° WSW visible
02 Sep 4.3 20:10:18 10° NNW 20:14:23 54° W 20:18:24 10° S visible
03 Sep 5.0 20:12:43 10° NNW 20:16:38 41° W 20:20:30 10° SSW visible
04 Sep 5.6 20:15:10 10° NNW 20:18:51 31° W 20:22:30 10° SSW visible
05 Sep 6.1 20:17:42 10° NW 20:21:03 24° W 20:24:24 10° SW visible
